Showing default

COSMOS 2452, 35499

Orbit data source: Space-Track

COSMOS 2452, 35499 is a payload satellite owned by KVR (CIS) in LEO that was launched on Mon, 06 Jul 2009 UTC via an ROKOT launch vehicle from the Plesetsk Missile And Space Complex (PKMTR). Payload-class satellites include a variety of spacecraft equipped with specific instruments for various scientific and technological missions. These include communications satellites like Starlink; space stations such as the ISS; scientific satellites like the Hubble; Earth observation satellites from companies like Planet Labs, Umbra, and HawkEye 360; GPS; miniature CubeSats for education and research; and military/defense satellites.

Loading next visibility...
Identifier
35499, 2009-036B
Orbit
LEO
Country
Flag of CISCIS
Related business
Manufacturer
Resehetnev ISS
Mission
Non-operational Defense Communications
Bus & Motor
STRELA-3M, Unknown motor
Mass
280 kg wet, 280 kg dry
Launch date (UTC)
2009-07-06 (16 years ago)
Launch vehicle
ROKOT
Launch site
Plesetsk Missile And Space Complex (PKMTR)
Object type
Payload
Rocket body
Debris
Shape & HBR
Cyl + 1 Ant, 3.5 m
Radar Cross Section
1.583 m², Large (>1 m²)

Expand to show TLE details & history
Last TLE update: 15 hours ago

TLE from 15 hours ago
0 COSMOS 2452
1 35499U 09036B   25312.72670895  .00000044  00000-0  24864-3 0  9990
2 35499  82.4929 216.8646 0015193 262.0951  97.8404 12.43000606741380
Epoch: 2025-11-08T17:26Z
TLE epoch observation values (Epoch: 2025-11-08T17:26:27.653Z)
Latitude
-0.00005°
Longitude
-92.90281°
Altitude
1,498.258 km
Speed
7.114 km/s
True Right ascension
14h 27m 27s
True Declination
0° 00' 00"
Sunlit
Object was in daylight at epoch
Visualization orbit readout
Latitude
Unknown
Longitude
Unknown
Altitude
Unknown
Speed
Unknown
Apparent Right ascension
Unknown
Apparent Declination
Unknown
Sunlit
N/A
Visualization observer readout
Local Sidereal Time
04:11:52
Azimuth
Unknown
Elevation
Unknown
Doppler factor
Unknown
Orbital elements
Apogee altitude
1,503.216 km
Perigee altitude
1,479.304 km
Semi-major axis
7,869.397 km
Eccentricity
0.00152
Inclination
82.4929°
RAAN
216.8646°
Arg. of periapsis
262.0951°
True anomaly
98.01283°
Mean anomaly
97.8404°
Eccentric anomaly
97.92662°
Mean motion
3.10907 °/min
Orbital period
115.79 mins
BSTAR
0.00024864
Loading maneuver chart data...
Computing Atmospheric mass density...
Loading historical data...
Loading historical data...
Loading historical data...
Loading historical data...
Loading historical data...
Loading historical data...
Loading historical data...
Other satellites on launch #36 in the year 2009 (2009-07-06 UTC)

Documentation

Showing up to 5 results
|